Onweer radar Meer informatie blitzortung!


Regen radar Meer informatie rain snow radar


Bezoek onze andere website:

Template documentation
and downloads

And another site



15 daagse weersverwachting Eskilstuna (SE)

  • Overzicht
  • Per uur
  • 15 dagen
  • Extra
  • Vergelijk
  • Kaarten
  • Dagkaart
  • Meer »
  • Info
  • Statistieken
  • Directe link
    Temp 6h Neerslag Wind  
 04:34     21:29    Daglengte: 16:55 Vandaag
20:00
22°
 
2
 04:36     21:26    Daglengte: 16:50 Morgen
02:00
18°
 
3
08:00
18°
 
3
14:00
22°
1.2 mm
5
20:00
17°
2.3 mm
4
 04:38     21:24    Daglengte: 16:46 Vrijdag 30 Jul
02:00
15°
 
5
08:00
15°
8.4 mm
7
14:00
19°
17.7 mm
5
20:00
19°
103.9 mm
3
 04:40     21:22    Daglengte: 16:42 Zaterdag 31 Jul
02:00
17°
 
4
08:00
17°
43.0 mm
4
14:00
20°
55.7 mm
3
Locatie info
Region: Södermanlands län
Latitude: 59.3724°N
Longitude: 16.5164°E
27 masl
Postcode: 632 20
Temp/Neerslag /Baro Onweer/Dauwpunt
    Temp Baro 1h Neerslag Dauwpunt Wind UV Bewolking  
 04:34     21:29    Daglengte: 16:55 Vandaag
19:00
22°
1005.1 hPa
48%
15.0°
1
Windvlaag: 0.3 m/s
21%
20:00
22°
1004.8 hPa
15%
15.3°
2
Windvlaag: 1.4 m/s
17%
21:00
20°
1004.7 hPa
14%
17.2°
2
Windvlaag: 2.4 m/s
16%
22:00
19°
1004.6 hPa
14%
16.9°
2
Windvlaag: 2.7 m/s
58%
23:00
18°
1004.4 hPa
14%
16.6°
2
Windvlaag: 1.9 m/s
56%
 04:36     21:26    Daglengte: 16:50 Morgen
00:00
18°
1004.3 hPa
14%
16.7°
2
Windvlaag: 1.7 m/s
21%
01:00
17°
1003.9 hPa
14%
17.0°
2
Windvlaag: 1.8 m/s
18%
02:00
18°
1003.6 hPa
15%
17.2°
3
Windvlaag: 2.1 m/s
14%
03:00
17°
1003.2 hPa
16%
16.3°
3
Windvlaag: 3 m/s
10%
04:00
17°
1002.9 hPa
14%
16.0°
3
Windvlaag: 3.5 m/s
10%
05:00
17°
1002.6 hPa
16%
16.1°
3
Windvlaag: 3.9 m/s
6%
06:00
17°
1002.4 hPa
14%
16.2°
3
Windvlaag: 3.9 m/s
18%
07:00
18°
1002.1 hPa
14%
16.5°
3
Windvlaag: 4.1 m/s
14%
08:00
18°
1001.9 hPa
14%
16.6°
3
Windvlaag: 3.9 m/s
11%
09:00
19°
1001.6 hPa
14%
16.5°
3
Windvlaag: 3.6 m/s
10%
10:00
21°
1001.0 hPa
18%
14.7°
3
Windvlaag: 4.6 m/s
8%
11:00
22°
1000.5 hPa
67%
13.1°
3
Windvlaag: 5.9 m/s
13%
12:00
22°
999.9 hPa
81%
11.8°
3
Windvlaag: 6.5 m/s
15%
13:00
22°
999.3 hPa 0.7 mm
82%
10.4°
4
Windvlaag: 6.9 m/s
31%
14:00
22°
998.8 hPa 0.5 mm
82%
8.9°
5
Windvlaag: 7 m/s
13%
15:00
22°
998.1 hPa 0.4 mm
82%
15.5°
5
Windvlaag: 6.8 m/s
45%
16:00
21°
997.6 hPa
38%
16.6°
5
Windvlaag: 6.6 m/s
43%
17:00
19°
997.5 hPa
82%
15.8°
5
Windvlaag: 9.6 m/s
20%
18:00
19°
997.1 hPa
82%
16.3°
5
Windvlaag: 7.3 m/s
18%
19:00
19°
996.8 hPa
82%
16.1°
4
Windvlaag: 7.4 m/s
35%
20:00
17°
996.6 hPa 1.9 mm
81%
14.8°
4
Windvlaag: 7.1 m/s
28%
21:00
16°
996.2 hPa
71%
14.9°
4
Windvlaag: 7.1 m/s
26%
22:00
16°
995.9 hPa
25%
14.5°
4
Windvlaag: 6.7 m/s
12%
23:00
16°
995.3 hPa
24%
14.7°
4
Windvlaag: 8.2 m/s
20%
 04:38     21:24    Daglengte: 16:46 Vrijdag 30 Jul
00:00
15°
994.8 hPa
19%
14.5°
4
Windvlaag: 8.1 m/s
20%
01:00
15°
994.4 hPa
26%
14.2°
5
Windvlaag: 8.2 m/s
31%
02:00
15°
993.9 hPa
28%
13.9°
5
Windvlaag: 9.1 m/s
9%
03:00
15°
993.1 hPa
65%
13.6°
5
Windvlaag: 9.4 m/s
12%
04:00
14°
992.5 hPa
72%
13.5°
5
Windvlaag: 9.5 m/s
68%
05:00
14°
991.8 hPa
82%
13.3°
5
Windvlaag: 9.5 m/s
81%
06:00
15°
991.3 hPa 2.5 mm
82%
13.4°
6
Windvlaag: 8.7 m/s
84%
07:00
15°
990.8 hPa 2.5 mm
82%
13.7°
6
Windvlaag: 8.8 m/s
77%
08:00
15°
990.2 hPa 3.3 mm
82%
13.8°
7
Windvlaag: 9.8 m/s
79%
09:00
15°
989.7 hPa 3.2 mm
81%
14.3°
7
Windvlaag: 9.5 m/s
75%
10:00
16°
989.4 hPa
78%
15.1°
6
Windvlaag: 8.6 m/s
83%
11:00
17°
989.7 hPa
22%
15.5°
6
Windvlaag: 9.1 m/s
58%
12:00
17°
989.8 hPa
17%
16.3°
5
Windvlaag: 9.6 m/s
55%
13:00
18°
990.0 hPa
68%
17.0°
5
Windvlaag: 8.6 m/s
54%
14:00
19°
990.2 hPa 14.5 mm
81%
17.4°
5
Windvlaag: 9.4 m/s
70%
15:00
20°
990.6 hPa 13.4 mm
82%
17.5°
5
Windvlaag: 1.4 m/s
50%
16:00
20°
991.3 hPa 13.0 mm
82%
17.6°
5
Windvlaag: -0.6 m/s
44%
17:00
20°
990.4 hPa 21.3 mm
100%
15.0°
4
Windvlaag: -2.1 m/s
50%
18:00
21°
991.1 hPa 21.5 mm
100%
13.1°
4
Windvlaag: -1.8 m/s
64%
19:00
20°
991.8 hPa 13.5 mm
100%
11.8°
4
Windvlaag: 1.4 m/s
47%
20:00
19°
992.3 hPa 21.2 mm
85%
14.1°
3
Windvlaag: 2 m/s
43%
21:00
18°
992.9 hPa
21%
13.9°
3
Windvlaag: 3 m/s
18%
22:00
18°
993.4 hPa
24%
13.4°
3
Windvlaag: 3.6 m/s
16%
23:00
18°
993.9 hPa
21%
12.7°
3
Windvlaag: 3.8 m/s
20%
 04:40     21:22    Daglengte: 16:42 Zaterdag 31 Jul
00:00
17°
994.3 hPa
21%
14.5°
3
Windvlaag: 3.3 m/s
18%
01:00
17°
994.7 hPa
21%
14.9°
4
Windvlaag: 2.3 m/s
26%
02:00
17°
995.0 hPa
21%
15.2°
4
Windvlaag: 2.2 m/s
77%
03:00
17°
995.2 hPa
21%
15.6°
4
Windvlaag: 3.2 m/s
87%
04:00
16°
995.4 hPa
21%
15.1°
4
Windvlaag: 3.4 m/s
83%
05:00
16°
995.3 hPa
21%
14.5°
3
Windvlaag: 3.1 m/s
72%
06:00
16°
995.5 hPa 21.5 mm
21%
13.4°
4
Windvlaag: 4.2 m/s
88%
07:00
16°
995.7 hPa 21.5 mm
21%
12.0°
4
Windvlaag: 3.9 m/s
95%
08:00
17°
995.7 hPa
21%
12.0°
4
Windvlaag: 4.1 m/s
85%
09:00
17°
996.0 hPa
21%
12.4°
4
Windvlaag: 4.6 m/s
86%
10:00
17°
996.0 hPa
24%
13.8°
4
Windvlaag: 4.5 m/s
88%
11:00
18°
996.2 hPa 21.4 mm
95%
15.3°
4
Windvlaag: 4.6 m/s
84%
12:00
18°
996.2 hPa 12.9 mm
95%
15.1°
3
Windvlaag: 4.3 m/s
83%
13:00
20°
996.1 hPa 21.5 mm
90%
15.1°
3
Windvlaag: 4.3 m/s
72%
14:00
20°
995.9 hPa
100%
14.9°
3
Windvlaag: 4.2 m/s
59%
15:00
20°
996.9 hPa 21.5 mm
100%
16.9°
3
Windvlaag: 2.8 m/s
63% warningclass
16:00
21°
996.5 hPa
100%
17.2°
3
Windvlaag: 4 m/s
20%
17:00
21°
996.2 hPa 21.8 mm
100%
16.9°
3
Windvlaag: 4.2 m/s
18% warningclass
18:00
20°
995.8 hPa 21.9 mm
100%
16.8°
2
Windvlaag: 3.4 m/s
50% warningclass
Temp/Neerslag /Baro Onweer/Dauwpunt
    Temp Baro Neerslag Dauwpunt Wind Bewolking  
 04:34     21:29    Daglengte: 16:55 Vandaag
20:00
22°
1004.8 hPa   15.3°
2
17%
23:00
18°
1004.4 hPa   16.6°
2
56%
 04:36     21:26    Daglengte: 16:50 Morgen
02:00
18°
1003.6 hPa   17.2°
3
14%
05:00
17°
1002.6 hPa   16.1°
3
6%
08:00
18°
1001.9 hPa   16.6°
3
11%
11:00
22°
1000.5 hPa   13.1°
3
13%
14:00
22°
998.8 hPa 1.2 mm 8.9°
5
13%
17:00
19°
997.5 hPa 0.4 mm 15.8°
5
20%
20:00
17°
996.6 hPa 1.9 mm 14.8°
4
28%
23:00
16°
995.3 hPa   14.7°
4
20%
 04:38     21:24    Daglengte: 16:46 Vrijdag 30 Jul
02:00
15°
993.9 hPa   13.9°
5
9%
05:00
14°
991.8 hPa   13.3°
5
81%
08:00
15°
990.2 hPa 8.4 mm 13.8°
7
79%
11:00
17°
989.7 hPa 3.2 mm 15.5°
6
58%
14:00
19°
990.2 hPa 14.5 mm 17.4°
5
70%
17:00
20°
990.4 hPa 47.8 mm 15.0°
4
50%
20:00
19°
992.3 hPa 56.1 mm 14.1°
3
43%
23:00
18°
993.9 hPa   12.7°
3
20%
 04:40     21:22    Daglengte: 16:42 Zaterdag 31 Jul
02:00
17°
995.0 hPa   15.2°
4
77%
05:00
16°
995.3 hPa   14.5°
3
72%
08:00
17°
995.7 hPa 43.0 mm 12.0°
4
85%
11:00
18°
996.2 hPa 21.4 mm 15.3°
4
84%
14:00
20°
995.9 hPa 34.3 mm 14.9°
3
59%
17:00
21°
996.2 hPa 43.3 mm 16.9°
3
18% warningclass
20:00
18°
995.7 hPa 68.5 mm 16.3°
1
56% warningclass
23:00
14°
994.4 hPa 29.4 mm 13.4°
2
1%
 04:43     21:19    Daglengte: 16:36 Zondag 01 Aug
02:00
14°
995.1 hPa 29.4 mm 13.6°
3
1%
05:00
13°
995.9 hPa 29.4 mm 12.5°
3
1%
08:00
15°
996.9 hPa 29.4 mm 12.8°
3
1%
11:00
17°
998.3 hPa 29.5 mm 11.2°
4
1%
14:00
18°
999.3 hPa 29.6 mm 11.5°
4
1%
17:00
19°
999.7 hPa 29.8 mm 10.9°
3
1%
20:00
17°
1000.4 hPa 30.2 mm 11.1°
3
1%
23:00
14°
1001.3 hPa 30.4 mm 11.2°
3
1%
 04:45     21:17    Daglengte: 16:32 Maandag 02 Aug
02:00
12°
1001.6 hPa 30.4 mm 10.7°
3
1%
05:00
11°
1001.3 hPa 30.4 mm 11.3°
2
0%
08:00
15°
1001.8 hPa 30.5 mm 11.8°
2
1%
11:00
14°
1002.6 hPa 30.5 mm 10.5°
3
1%
14:00
14°
1003.3 hPa 30.5 mm 9.3°
3
1%
17:00
15°
1003.6 hPa 30.5 mm 9.2°
4
1%
20:00
13°
1004.1 hPa 30.5 mm 9.0°
2
1%
23:00
11°
1004.5 hPa 30.5 mm 8.7°
2
1%
 04:47     21:15    Daglengte: 16:28 Dinsdag 03 Aug
02:00
12°
1005.2 hPa 30.5 mm 7.3°
2
1%
05:00
11°
1006.2 hPa 30.5 mm 6.7°
2
1%
08:00
14°
1007.2 hPa 30.5 mm 6.1°
2
1%
11:00
18°
1007.8 hPa 30.5 mm 4.8°
2
0%
14:00
21°
1007.7 hPa 30.5 mm 4.5°
1
0%
17:00
21°
1007.4 hPa 30.5 mm 4.8°
1
1%
20:00
16°
1007.6 hPa 30.6 mm 8.8°
1
1%
23:00
14°
1008.6 hPa 30.6 mm 9.3°
2
1%
 04:49     21:12    Daglengte: 16:23 Woensdag 04 Aug
02:00
13°
1008.7 hPa 30.6 mm 9.0°
2
1%
05:00
12°
1009.2 hPa 31.4 mm 11.1°
2
1%
08:00
13°
1010.4 hPa 31.5 mm 11.2°
2
1%
11:00
16°
1011.5 hPa 31.5 mm 9.7°
2
1%
14:00
20°
1011.5 hPa 31.6 mm 8.3°
2
1%
17:00
20°
1011.8 hPa   7.3°
2
1%
20:00
17°
1012.3 hPa 64.4 mm 10.7°
1
1%
 04:52     21:10    Daglengte: 16:18 Donderdag 05 Aug
02:00
12°
1014.2 hPa 64.6 mm 10.5°
2
1%
08:00
16°
1014.8 hPa 64.6 mm 11.4°
2
1%
14:00
23°
1013.8 hPa 64.6 mm 9.6°
2
1%
20:00
17°
1014.0 hPa 67.1 mm 15.2°
2
1%
 04:54     21:07    Daglengte: 16:13 Vrijdag 06 Aug
02:00
14°
1014.4 hPa 68.2 mm 13.4°
2
1%
08:00
17°
1013.6 hPa 68.2 mm 15.1°
2
1%
14:00
24°
1011.5 hPa 68.7 mm 10.5°
5
1%
20:00
20°
1010.6 hPa 68.7 mm 11.5°
4
1%
 04:56     21:04    Daglengte: 16:08 Zaterdag 07 Aug
02:00
18°
1008.6 hPa 68.7 mm 13.0°
4
1%
08:00
16°
1007.5 hPa 0.4 mm 12.7°
1
70%
14:00
21°
1006.8 hPa 0.7 mm 12.8°
2
75%
20:00
18°
1006.4 hPa 1.6 mm 13.9°
1
81%
 04:59     21:02    Daglengte: 16:03 Zondag 08 Aug
02:00
14°
1006.8 hPa 0.7 mm 12.5°
0
67%
08:00
16°
1006.8 hPa 0.5 mm 13.0°
0
68%
14:00
21°
1007.6 hPa 1.3 mm 13.5°
1
70%
20:00
18°
1008.3 hPa 1.2 mm 13.5°
1
68%
 05:01     20:59    Daglengte: 15:58 Maandag 09 Aug
02:00
14°
1009.6 hPa 0.4 mm 12.0°
1
59%
08:00
16°
1009.8 hPa 1.3 mm 12.7°
1
59%
14:00
21°
1009.9 hPa 1.4 mm 13.4°
2
68%
20:00
18°
1010.0 hPa 1.3 mm 13.9°
1
78%
 05:03     20:57    Daglengte: 15:54 Dinsdag 10 Aug
02:00
14°
1011.0 hPa 0.7 mm 12.4°
1
70%
08:00
16°
1011.0 hPa 0.2 mm 13.1°
1
65%
14:00
22°
1010.6 hPa 0.7 mm 12.5°
1
68%
20:00
18°
1009.6 hPa 0.7 mm 13.2°
1
69%
 05:05     20:54    Daglengte: 15:49 Woensdag 11 Aug
02:00
14°
1010.1 hPa 0.8 mm 11.9°
1
62%
08:00
16°
1010.0 hPa 0.4 mm 12.7°
1
59%
14:00
21°
1010.0 hPa 0.8 mm 12.6°
1
56%
20:00
17°
1009.8 hPa 0.6 mm 13.0°
0
61%
 05:08     20:51    Daglengte: 15:43 Donderdag 12 Aug
02:00
14°
1010.2 hPa 0.6 mm 12.1°
0
54%
08:00
15°
1009.9 hPa 0.6 mm 12.5°
1
57%
14:00
21°
1009.2 hPa 1.7 mm 12.7°
1
68%
  CAPE Lifted Index Hail Supercell Tornado SRH 3km CL BTM PRES CL TOP PRES Swiss DWD icon SMHI TS
 04:34     21:29    Daglengte: 16:55 Vandaag
19:00 1123 J/kg -3.7 K 0 % 0 % 0 % 0 m²/s² 0 0 -1.81 2
20:00 1079 J/kg -3.4 K 0 % 0 % 0 % 0 m²/s² 0 0 -1.69 1
21:00 1035 J/kg -3.4 K 0 % 0 % 0 % 0 m²/s² 0 0 -2.5 1
22:00 116 J/kg -2.1 K 0 % 0 % 0 % 0 m²/s² 0 0 -1.11 3
23:00 105 J/kg -2.1 K 0 % 0 % 0 % 0 m²/s² 0 0 -1.29 3
 04:36     21:26    Daglengte: 16:50 Morgen
00:00 338 J/kg -1.2 K 0 % 0 % 0 % 0 m²/s² 0 0 -0.54 2
01:00 519 J/kg -1.9 K 0 % 0 % 0 % 0 m²/s² 0 0 -1.39 1
02:00 220 J/kg -1.4 K 0 % 0 % 0 % 0 m²/s² 0 0 -0.8 2
03:00 114 J/kg -1.0 K 0 % 0 % 0 % 0 m²/s² 0 0 -0.19 2
04:00 28 J/kg -0.5 K 0 % 0 % 0 % 0 m²/s² 0 0 0.79 1
05:00 36 J/kg 0.2 K 0 % 0 % 0 % 0 m²/s² 0 0 2.75 2
06:00 70 J/kg -0.4 K 0 % 0 % 0 % 0 m²/s² 0 0 2.24 2
07:00 326 J/kg -0.9 K 0 % 0 % 0 % 0 m²/s² 0 0 1.5 2
08:00 467 J/kg -1.5 K 0 % 0 % 0 % 0 m²/s² 0 0 0.96 2
09:00 414 J/kg -1.4 K 0 % 0 % 0 % 0 m²/s² 0 0 1.36 2
10:00 325 J/kg -0.7 K 0 % 0 % 0 % 0 m²/s² 0 0 1.49 2
11:00 272 J/kg -0.3 K 0 % 0 % 0 % 0 m²/s² 0 0 1.83 2
12:00 351 J/kg -0.7 K 0 % 0 % 0 % 0 m²/s² 0 0 2.48 2
13:00 391 J/kg -1.0 K 0 % 0 % 0 % 0 m²/s² 0 0 1.82 80
14:00 472 J/kg -1.8 K 0 % 0 % 0 % 0 m²/s² 0 0 1.26 80
15:00 484 J/kg -2.1 K 0 % 0 % 0 % 0 m²/s² 0 0 0.57 2
16:00 492 J/kg -2.3 K 0 % 0 % 0 % 0 m²/s² 0 0 -1.37 2
17:00 0 J/kg 1.5 K 0 % 0 % 0 % 0 m²/s² 0 0 1.59 3
18:00 3 J/kg 0.4 K 0 % 0 % 0 % 0 m²/s² 0 0 3.04 80
19:00 219 J/kg -0.6 K 0 % 0 % 0 % 0 m²/s² 0 0 3.42 80
20:00 407 J/kg -1.6 K 0 % 0 % 0 % 0 m²/s² 0 0 1.43 80
21:00 233 J/kg -0.9 K 0 % 0 % 0 % 0 m²/s² 0 0 0.15 3
22:00 163 J/kg -0.2 K 0 % 0 % 0 % 0 m²/s² 0 0 -0.08 3
23:00 73 J/kg 0.5 K 0 % 0 % 0 % 0 m²/s² 0 0 0.83 3
 04:38     21:24    Daglengte: 16:46 Vrijdag 30 Jul
00:00 16 J/kg 0.6 K 0 % 0 % 0 % 0 m²/s² 0 0 1.47 3
01:00 39 J/kg 0.2 K 0 % 0 % 0 % 0 m²/s² 0 0 0.56 3
02:00 157 J/kg -1.2 K 0 % 0 % 0 % 0 m²/s² 0 0 -0.3 2
03:00 227 J/kg -1.5 K 0 % 0 % 0 % 0 m²/s² 0 0 -0.39 3
04:00 202 J/kg -1.4 K 0 % 0 % 0 % 0 m²/s² 0 0 -0.5 3
05:00 174 J/kg -1.2 K 0 % 0 % 0 % 0 m²/s² 0 0 -0.48 80
06:00 166 J/kg -1.1 K 0 % 0 % 0 % 0 m²/s² 0 0 -0.05 61
07:00 331 J/kg -1.8 K 0 % 0 % 0 % 0 m²/s² 0 0 0.39 80
08:00 304 J/kg -1.5 K 0 % 0 % 0 % 0 m²/s² 0 0 0.15 63
09:00 158 J/kg 0.0 K 0 % 0 % 0 % 0 m²/s² 0 0 0.03 61
10:00 119 J/kg 0.5 K 0 % 0 % 0 % 0 m²/s² 0 0 0.8 3
11:00 171 J/kg 0.0 K 0 % 0 % 0 % 0 m²/s² 0 0 0.18 3
12:00 180 J/kg -0.1 K 0 % 0 % 0 % 0 m²/s² 0 0 -0.1 3
13:00 176 J/kg -0.6 K 0 % 0 % 0 % 0 m²/s² 0 0 -0.39 2
14:00 231 J/kg -0.4 K 0 % 0 % 0 % 0 m²/s² 0 0 -0.4 3
15:00 413 J/kg -0.7 K 0 % 0 % 0 % 0 m²/s² 0 0 0.47 80
16:00 440 J/kg -0.8 K 0 % 0 % 0 % 0 m²/s² 0 0 2.08 80
17:00 285 J/kg -0.6 K 0 % 0 % 0 % 0 m²/s² 0 0 3.48 80
18:00 126 J/kg -0.4 K 0 % 0 % 0 % 0 m²/s² 0 0 3.02 80
19:00 60 J/kg -0.1 K 0 % 0 % 0 % 0 m²/s² 0 0 1.94 80
20:00 198 J/kg -0.4 K 0 % 0 % 0 % 0 m²/s² 0 0 1.88 1
21:00 159 J/kg -0.7 K 0 % 0 % 0 % 0 m²/s² 0 0 1.97 2
22:00 187 J/kg -1.1 K 0 % 0 % 0 % 0 m²/s² 0 0 1.06 2
23:00 321 J/kg -1.3 K 0 % 0 % 0 % 0 m²/s² 0 0 1.07 1
 04:40     21:22    Daglengte: 16:42 Zaterdag 31 Jul
00:00 386 J/kg -1.4 K 0 % 0 % 0 % 0 m²/s² 0 0 0.49 1
01:00 158 J/kg -1.0 K 0 % 0 % 0 % 0 m²/s² 0 0 1.43 2
02:00 98 J/kg -1.6 K 0 % 0 % 0 % 0 m²/s² 0 0 -0.37 2
03:00 42 J/kg -1.6 K 0 % 0 % 0 % 0 m²/s² 0 0 1.19 2
04:00 0 J/kg -1.7 K 0 % 0 % 0 % 0 m²/s² 0 0 2.17 2
05:00 0 J/kg -1.2 K 0 % 0 % 0 % 0 m²/s² 0 0 2.76 2
06:00 0 J/kg -1.5 K 0 % 0 % 0 % 0 m²/s² 0 0 2.07 2
07:00 0 J/kg -1.1 K 0 % 0 % 0 % 0 m²/s² 0 0 2.08 3
08:00 0 J/kg -1.4 K 0 % 0 % 0 % 0 m²/s² 0 0 1.54 3
09:00 0 J/kg -2.8 K 0 % 0 % 0 % 0 m²/s² 0 0 -0.88 3
10:00 0 J/kg -2.5 K 0 % 0 % 0 % 0 m²/s² 0 0 -1.84 3
11:00 0 J/kg -1.7 K 0 % 0 % 0 % 0 m²/s² 0 0 -1.61 3
12:00 357 J/kg -1.9 K 0 % 0 % 0 % 0 m²/s² 0 0 -1.51 3
13:00 779 J/kg -3.1 K 0 % 0 % 0 % 0 m²/s² 0 0 -1.93 3
14:00 844 J/kg -3.3 K 0 % 0 % 0 % 0 m²/s² 0 0 -1.56 3
15:00 887 J/kg -3.5 K 0 % 0 % 0 % 0 m²/s² 0 0 -2.63 3
16:00 961 J/kg -3.7 K 0 % 0 % 0 % 0 m²/s² 0 0 -2.68 2
17:00 1131 J/kg -4.3 K 0 % 0 % 0 % 0 m²/s² 0 0 -3.13 2
18:00 1311 J/kg -4.7 K 0 % 0 % 0 % 0 m²/s² 0 0 -3.47 80
Temp Baro Wind Neerslag
  EWN Forecast EWN WRFDA DWD ICON FMI HIRLAM MET Norway GFS
 04:34     21:29    Daglengte: 16:55 Vandaag
20:00 21.7° 1004.8 hPa 1.9 m/s 0.0 mm 22.9° 1003.9 hPa 0.6 m/s 1.9 mm 21.5° 1004.9 hPa 3.3 m/s -1.3 mm 23.3° 1004.4 hPa 1.1 m/s 0.0 mm 19.8° 1004.3 hPa 1.6 m/s
23:00 18.5° 1004.4 hPa 1.7 m/s 0.0 mm 18.2° 1003.7 hPa 1.2 m/s 3.0 mm 18.3° 1004.6 hPa 1.7 m/s 0.0 mm 18.5° 1004.4 hPa 0.6 m/s 0.0 mm 16.7° 1003.9 hPa 1.8 m/s
 04:36     21:26    Daglengte: 16:50 Morgen
02:00 17.7° 1003.6 hPa 2.8 m/s 0.0 mm 16.9° 1003.0 hPa 2.2 m/s 3.0 mm 16.9° 1003.7 hPa 2.2 m/s 0.0 mm 18.3° 1003.4 hPa 2.9 m/s 0.0 mm 15.5° 1002.9 hPa 2.2 m/s
05:00 16.7° 1002.6 hPa 2.8 m/s 0.0 mm 15.7° 1001.4 hPa 3.0 m/s 3.0 mm 16.3° 1002.8 hPa 2.4 m/s 0.0 mm 17.2° 1002.7 hPa 2.7 m/s 0.0 mm 14.2° 1002.0 hPa 2.5 m/s
08:00 18.3° 1001.9 hPa 3.3 m/s 0.0 mm 19.0° 1000.8 hPa 3.4 m/s 3.0 mm 18.2° 1001.7 hPa 3.7 m/s 0.0 mm 18.4° 1002.0 hPa 2.6 m/s 0.0 mm 17.8° 1001.3 hPa 3.3 m/s
11:00 21.5° 1000.5 hPa 3.3 m/s 0.0 mm 22.0° 999.5 hPa 4.1 m/s 3.0 mm 21.3° 1000.4 hPa 4.4 m/s 0.0 mm 22.6° 1000.6 hPa 2.4 m/s 0.0 mm 22.3° 999.6 hPa 3.6 m/s
14:00 21.5° 998.8 hPa 4.5 m/s 1.2 mm 23.1° 997.4 hPa 5.0 m/s 3.0 mm 20.7° 999.3 hPa 5.1 m/s 0.5 mm 25.6° 998.2 hPa 3.1 m/s 0.0 mm 21.2° 998.3 hPa 6.1 m/s
17:00 19.4° 997.5 hPa 5.0 m/s 0.4 mm 14.7° 997.1 hPa 8.5 m/s 9.8 mm 19.5° 997.8 hPa 5.6 m/s 0.2 mm 20.3° 997.0 hPa 3.9 m/s 0.0 mm 19.6° 997.1 hPa 6.0 m/s
20:00 17.3° 996.6 hPa 4.3 m/s 1.9 mm 18.2° 995.8 hPa 3.1 m/s 25.3 mm 16.0° 996.9 hPa 4.5 m/s 0.8 mm 18.6° 995.6 hPa 2.1 m/s 0.0 mm 16.9° 996.8 hPa 4.4 m/s
23:00 15.5° 995.3 hPa 4.1 m/s 0.0 mm 14.1° 994.6 hPa 3.6 m/s 27.1 mm 15.1° 995.4 hPa 4.2 m/s 0.0 mm 15.9° 994.8 hPa 2.3 m/s 0.0 mm 12.8° 995.9 hPa 3.9 m/s
 04:38     21:24    Daglengte: 16:46 Vrijdag 30 Jul
02:00 14.8° 993.9 hPa 4.6 m/s 0.0 mm 13.2° 993.2 hPa 3.6 m/s 30.3 mm 14.3° 993.4 hPa 4.7 m/s 0.0 mm 15.7° 993.8 hPa 3.3 m/s 0.0 mm 12.5° 994.3 hPa 4.2 m/s
05:00 14.3° 991.8 hPa 5.3 m/s 0.0 mm 12.6° 992.2 hPa 3.8 m/s 30.4 mm 14.3° 990.6 hPa 4.5 m/s 1.0 mm 15.6° 991.7 hPa 5.6 m/s 0.0 mm 13.3° 992.3 hPa 4.1 m/s
08:00 15.3° 990.2 hPa 6.6 m/s 8.4 mm 15.8° 990.8 hPa 7.3 m/s 31.0 mm 15.2° 988.0 hPa 5.9 m/s 4.3 mm 15.9° 990.2 hPa 7.2 m/s 0.0 mm 13.7° 990.9 hPa 3.1 m/s
11:00 16.5° 989.7 hPa 5.7 m/s 3.2 mm 14.8° 990.3 hPa 3.9 m/s 79.1 mm 18.6° 989.4 hPa 5.7 m/s 0.3 mm 16.6° 989.4 hPa 5.6 m/s 0.0 mm 14.3° 991.1 hPa 2.3 m/s
14:00 18.7° 990.2 hPa 5.2 m/s 14.5 mm 16.1° 989.2 hPa 3.7 m/s 161.3 mm 22.5° 990.5 hPa 6.5 m/s 0.1 mm 18.9° 991.0 hPa 4.2 m/s 0.0 mm 17.1° 991.4 hPa 2.5 m/s
17:00 20.3° 990.4 hPa 4.4 m/s 47.8 mm 20.4° 989.2 hPa 3.6 m/s 189.7 mm 22.1° 992.8 hPa 6.6 m/s 1.6 mm 20.6° 992.5 hPa 2.7 m/s
20:00 19.4° 992.3 hPa 2.9 m/s 56.1 mm 20.6° 991.2 hPa 1.6 m/s 190.0 mm 19.7° 995.0 hPa 2.9 m/s 2.2 mm 19.2° 993.9 hPa 2.6 m/s
23:00 17.7° 993.9 hPa 3.4 m/s 0.0 mm 19.1° 992.5 hPa 3.5 m/s 190.0 mm 17.8° 996.2 hPa 2.1 m/s 0.0 mm 15.2° 996.1 hPa 1.6 m/s
 04:40     21:22    Daglengte: 16:42 Zaterdag 31 Jul
02:00 16.9° 995.0 hPa 4.2 m/s 0.0 mm 17.2° 994.1 hPa 2.1 m/s 190.0 mm 17.0° 996.9 hPa 4.8 m/s 0.0 mm 14.8° 997.0 hPa 3.0 m/s
05:00 16.0° 995.3 hPa 3.4 m/s 0.0 mm 13.4° 994.3 hPa 2.3 m/s 191.1 mm 16.3° 997.0 hPa 3.5 m/s 0.0 mm 15.2° 997.3 hPa 3.3 m/s
08:00 16.6° 995.7 hPa 3.9 m/s 43.0 mm 15.4° 994.9 hPa 1.8 m/s 191.1 mm 17.6° 997.5 hPa 4.1 m/s 0.0 mm 15.7° 997.0 hPa 1.8 m/s
11:00 17.8° 996.2 hPa 3.7 m/s 21.4 mm 16.3° 995.0 hPa 1.0 m/s 191.2 mm 18.9° 998.0 hPa 4.2 m/s 0.1 mm 18.8° 996.9 hPa 2.5 m/s
14:00 20.0° 995.9 hPa 2.5 m/s 34.3 mm 20.1° 994.6 hPa 0.6 m/s 191.4 mm 20.4° 997.9 hPa 4.0 m/s 0.2 mm 19.3° 996.2 hPa 3.2 m/s
17:00 20.8° 996.2 hPa 2.8 m/s 43.3 mm 20.0° 993.7 hPa 4.2 m/s 193.9 mm 21.0° 996.8 hPa 2.5 m/s 0.3 mm 17.1° 994.8 hPa 2.6 m/s
20:00 17.8° 995.7 hPa 1.5 m/s 68.5 mm 15.7° 994.1 hPa 2.1 m/s 202.1 mm 18.4° 996.2 hPa 1.3 m/s 1.8 mm 15.9° 994.3 hPa 1.4 m/s
23:00 14.1° 994.4 hPa 2.1 m/s 29.4 mm 14.1° 994.3 hPa 2.1 m/s 29.4 mm
 04:43     21:19    Daglengte: 16:36 Zondag 01 Aug
02:00 14.1° 995.1 hPa 2.6 m/s 29.4 mm 14.1° 995.1 hPa 2.6 m/s 29.4 mm
05:00 12.9° 995.9 hPa 2.8 m/s 29.4 mm 12.9° 995.9 hPa 2.8 m/s 29.4 mm
08:00 14.8° 996.9 hPa 3.3 m/s 29.4 mm 14.8° 996.9 hPa 3.3 m/s 29.4 mm
11:00 17.1° 998.3 hPa 3.8 m/s 29.5 mm 17.1° 998.3 hPa 3.8 m/s 29.5 mm
14:00 18.1° 999.3 hPa 3.7 m/s 29.6 mm 18.1° 999.3 hPa 3.7 m/s 29.6 mm
17:00 19.3° 999.7 hPa 3.2 m/s 29.8 mm 19.3° 999.7 hPa 3.2 m/s 29.8 mm
20:00 16.7° 1000.4 hPa 3.2 m/s 30.2 mm 16.7° 1000.4 hPa 3.2 m/s 30.2 mm
23:00 14.1° 1001.3 hPa 3.1 m/s 30.4 mm 14.1° 1001.3 hPa 3.1 m/s 30.4 mm
 04:45     21:17    Daglengte: 16:32 Maandag 02 Aug
02:00 12.0° 1001.6 hPa 2.9 m/s 30.4 mm 12.0° 1001.6 hPa 2.9 m/s 30.4 mm
05:00 11.5° 1001.3 hPa 2.2 m/s 30.4 mm 11.5° 1001.3 hPa 2.2 m/s 30.4 mm
08:00 14.5° 1001.8 hPa 1.9 m/s 30.5 mm 14.5° 1001.8 hPa 1.9 m/s 30.5 mm
11:00 13.7° 1002.6 hPa 2.9 m/s 30.5 mm 13.7° 1002.6 hPa 2.9 m/s 30.5 mm
14:00 14.4° 1003.3 hPa 3.1 m/s 30.5 mm 14.4° 1003.3 hPa 3.1 m/s 30.5 mm
17:00 14.8° 1003.6 hPa 3.7 m/s 30.5 mm 14.8° 1003.6 hPa 3.7 m/s 30.5 mm
20:00 13.3° 1004.1 hPa 2.2 m/s 30.5 mm 13.3° 1004.1 hPa 2.2 m/s 30.5 mm
23:00 11.5° 1004.5 hPa 1.7 m/s 30.5 mm 11.5° 1004.5 hPa 1.7 m/s 30.5 mm
 04:47     21:15    Daglengte: 16:28 Dinsdag 03 Aug
02:00 11.9° 1005.2 hPa 1.9 m/s 30.5 mm 11.9° 1005.2 hPa 1.9 m/s 30.5 mm
05:00 11.3° 1006.2 hPa 2.3 m/s 30.5 mm 11.3° 1006.2 hPa 2.3 m/s 30.5 mm
08:00 13.9° 1007.2 hPa 2.3 m/s 30.5 mm 13.9° 1007.2 hPa 2.3 m/s 30.5 mm
11:00 18.3° 1007.8 hPa 1.8 m/s 30.5 mm 18.3° 1007.8 hPa 1.8 m/s 30.5 mm
14:00 21.1° 1007.7 hPa 1.4 m/s 30.5 mm 21.1° 1007.7 hPa 1.4 m/s 30.5 mm
17:00 20.9° 1007.4 hPa 1.1 m/s 30.5 mm 20.9° 1007.4 hPa 1.1 m/s 30.5 mm
20:00 15.7° 1007.6 hPa 1.1 m/s 30.6 mm 15.7° 1007.6 hPa 1.1 m/s 30.6 mm
23:00 13.8° 1008.6 hPa 2.2 m/s 30.6 mm 13.8° 1008.6 hPa 2.2 m/s 30.6 mm
 04:49     21:12    Daglengte: 16:23 Woensdag 04 Aug
02:00 13.1° 1008.7 hPa 1.7 m/s 30.6 mm 13.1° 1008.7 hPa 1.7 m/s 30.6 mm
05:00 11.9° 1009.2 hPa 2.1 m/s 31.4 mm 11.9° 1009.2 hPa 2.1 m/s 31.4 mm
08:00 13.4° 1010.4 hPa 2.5 m/s 31.5 mm 13.4° 1010.4 hPa 2.5 m/s 31.5 mm
11:00 15.7° 1011.5 hPa 2.1 m/s 31.5 mm 15.7° 1011.5 hPa 2.1 m/s 31.5 mm
14:00 20.4° 1011.5 hPa 1.5 m/s 31.6 mm 20.4° 1011.5 hPa 1.5 m/s 31.6 mm
17:00 20.3° 1011.8 hPa 1.5 m/s 32.2 mm 20.3° 1011.8 hPa 1.5 m/s 32.2 mm
20:00 17.0° 1012.3 hPa 0.6 m/s 32.3 mm 17.0° 1012.3 hPa 0.6 m/s 32.3 mm
 04:52     21:10    Daglengte: 16:18 Donderdag 05 Aug
02:00 12.0° 1014.2 hPa 1.9 m/s 32.3 mm 12.0° 1014.2 hPa 1.9 m/s 32.3 mm
08:00 16.1° 1014.8 hPa 1.8 m/s 32.3 mm 16.1° 1014.8 hPa 1.8 m/s 32.3 mm
14:00 22.9° 1013.8 hPa 2.2 m/s 32.3 mm 22.9° 1013.8 hPa 2.2 m/s 32.3 mm
20:00 16.9° 1014.0 hPa 2.0 m/s 34.0 mm 16.9° 1014.0 hPa 2.0 m/s 34.0 mm
 04:54     21:07    Daglengte: 16:13 Vrijdag 06 Aug
02:00 14.1° 1014.4 hPa 2.1 m/s 34.1 mm 14.1° 1014.4 hPa 2.1 m/s 34.1 mm
08:00 16.6° 1013.6 hPa 2.4 m/s 34.1 mm 16.6° 1013.6 hPa 2.4 m/s 34.1 mm
14:00 24.3° 1011.5 hPa 5.2 m/s 34.4 mm 24.3° 1011.5 hPa 5.2 m/s 34.4 mm
20:00 20.5° 1010.6 hPa 4.0 m/s 34.4 mm 20.5° 1010.6 hPa 4.0 m/s 34.4 mm
 04:56     21:04    Daglengte: 16:08 Zaterdag 07 Aug
02:00 17.9° 1008.6 hPa 3.8 m/s 34.4 mm 17.9° 1008.6 hPa 3.8 m/s 34.4 mm
08:00 15.8° 1007.5 hPa 1.1 m/s 0.4 mm
14:00 21.3° 1006.8 hPa 1.8 m/s 0.7 mm
20:00 17.8° 1006.4 hPa 1.3 m/s 1.6 mm
 04:59     21:02    Daglengte: 16:03 Zondag 08 Aug
02:00 14.1° 1006.8 hPa 0.3 m/s 0.7 mm
08:00 15.7° 1006.8 hPa 0.4 m/s 0.5 mm
14:00 20.7° 1007.6 hPa 1.0 m/s 1.3 mm
20:00 18.1° 1008.3 hPa 0.9 m/s 1.2 mm
 05:01     20:59    Daglengte: 15:58 Maandag 09 Aug
02:00 13.8° 1009.6 hPa 0.7 m/s 0.4 mm
08:00 16.0° 1009.8 hPa 0.7 m/s 1.3 mm
14:00 21.1° 1009.9 hPa 1.6 m/s 1.4 mm
20:00 17.7° 1010.0 hPa 1.3 m/s 1.3 mm
 05:03     20:57    Daglengte: 15:54 Dinsdag 10 Aug
02:00 13.9° 1011.0 hPa 1.2 m/s 0.7 mm
08:00 15.8° 1011.0 hPa 1.2 m/s 0.2 mm
14:00 21.6° 1010.6 hPa 1.2 m/s 0.7 mm
20:00 17.6° 1009.6 hPa 1.1 m/s 0.7 mm
 05:05     20:54    Daglengte: 15:49 Woensdag 11 Aug
02:00 13.7° 1010.1 hPa 0.9 m/s 0.8 mm
08:00 15.7° 1010.0 hPa 1.1 m/s 0.4 mm
14:00 21.4° 1010.0 hPa 0.9 m/s 0.8 mm
20:00 17.4° 1009.8 hPa 0.4 m/s 0.6 mm
 05:08     20:51    Daglengte: 15:43 Donderdag 12 Aug
02:00 13.5° 1010.2 hPa 0.5 m/s 0.6 mm